Preview of NWS' New Version of Forecast
This preview is not operational and should not be used for support decisions.

Regional Weather Roundup (RWR)

Issued by National Weather Service (NWS)

                            
000
ASUS43 KMKX 230300
RWRWI 

WISCONSIN REGIONAL WEATHER ROUNDUP
NATIONAL WEATHER SERVICE MILWAUKEE/SULLIVAN WI
1000 PM CDT THU AUG 22 2019

NOTE: "FAIR" INDICATES FEW OR NO CLOUDS BELOW 12,000 FEET WITH NO
SIGNIFICANT WEATHER AND/OR OBSTRUCTIONS TO VISIBILITY.

WIZ001-002-006>008-014>016-023>028-230400-
NORTHWEST WISCONSIN
  
CITY           SKY/WX    TMP DP  RH WIND       PRES   REMARKS
SUPERIOR ARPT  FAIR      57  55  92 CALM      30.18R                  
ASHLAND        FAIR      49  48  97 CALM      30.18R                  
HAYWARD        FAIR      51  47  86 CALM      30.18R                  
SIREN          FAIR      54  49  81 CALM      30.16R                  
CUMBERLAND     FAIR      54  48  82 E6        30.16S                  
RICE LAKE      FAIR      56  40  55 NE6       30.17R                  
CHETEK         FAIR      59  51  75 NE6       30.16R                  
LADYSMITH      FAIR      55  50  84 NE3       30.18R                  
EAU CLAIRE     NOT AVBL                                               
MENOMONIE      MOCLDY    60  49  66 N8        30.13R                  
NEW RICHMOND   FAIR      56  52  87 NE6       30.14R                  
OSCEOLA        FAIR      57  52  84 CALM      30.17R                  
$$
 
WIZ003>005-009-010-017-018-230400-
NORTH CENTRAL WISCONSIN
  
CITY           SKY/WX    TMP DP  RH WIND       PRES   REMARKS
MANITOWISH WTR FAIR      49  49 100 CALM      30.18R                  
ARBOR VITAE    FAIR      52  49  92 CALM      30.18R                  
WOODRUFF       FAIR      52  49  92 CALM      30.18R                  
RHINELANDER    FAIR      49  46  90 CALM      30.18R                  
EAGLE RIVER    FAIR      47  47 100 CALM      30.17R                  
LAND O LAKES   FAIR      46  46  97 CALM      30.19S                  
PHILLIPS       FAIR      49  49 100 CALM      30.17R                  
TOMAHAWK       FAIR      48  46  94 CALM      30.17S                  
MEDFORD        MOCLDY    53  50  90 E3        30.15S                  
MERRILL        FAIR      53  51  95 CALM      30.17R                  
$$
 
WIZ029-030-035-036-043>047-230400-
CENTRAL WISCONSIN
  
CITY           SKY/WX    TMP DP  RH WIND       PRES   REMARKS
WAUSAU         CLOUDY    58  51  78 E5        30.14R                  
MOSINEE        MOCLDY    59  57  94 NE6       30.16R                  
MARSHFIELD     MOCLDY    60  54  80 E6        30.13R                  
STEVENS POINT  CLOUDY    59  56  92 CALM      30.15R                  
WAUPACA        MOCLDY    61  58  88 CALM      30.14R                  
WAUTOMA        MOCLDY    61  56  83 CALM      30.13S                  
WISC RAPIDS    CLOUDY    62  55  77 E5        30.14R                  
CAMP DOUGLAS   MOCLDY    62  61  97 E6        30.11R                  
$$
 
WIZ011>013-019>022-031-037>040-048>050-230400-
NORTHEAST WISCONSIN
  
CITY           SKY/WX    TMP DP  RH WIND       PRES   REMARKS
ANTIGO         FAIR      53  51  93 CALM      30.17R                  
SHAWANO        MOCLDY    62  55  79 CALM      30.15R                  
OCONTO         CLOUDY    59  56  88 CALM      30.14R                  
STURGEON BAY   CLOUDY    61  56  83 CALM      30.14R                  
GREEN BAY      CLOUDY    63  57  81 CALM      30.14R                  
MANITOWOC      CLOUDY    60  57  89 N3        30.13S                  
APPLETON       CLOUDY    63  54  72 VRB5      30.12R                  
CLINTONVILLE   CLOUDY    60  55  84 CALM      30.14R                  
OSHKOSH        MOCLDY    59  53  80 SE3       30.12S                  
$$
 
WIZ032>034-041-042-053>061-230400-
SOUTHWEST WISCONSIN
  
CITY           SKY/WX    TMP DP  RH WIND       PRES   REMARKS
LA CROSSE      FAIR      66  56  70 CALM      30.08R                  
SPARTA         FAIR      58  55  90 CALM      30.11R                  
VIROQUA        CLOUDY    62  61  96 NE7       30.10R                  
BOSCOBEL       CLOUDY    62  59  90 CALM      30.08R                  
PRAIRIE DU CHI CLOUDY    67  58  73 CALM      30.06S                  
PLATTEVILLE    FAIR      65  59  80 E7        30.08R                  
$$

WIZ056-057-062-063-064-067-068-230400-
SOUTH CENTRAL WISCONSIN
  
CITY           SKY/WX    TMP DP  RH WIND       PRES   REMARKS
REEDSBURG      CLOUDY    64  57  78 E6        30.09S                  
BARABOO/DELLS  CLOUDY    62  56  79 E8        30.11R                  
LONE ROCK      NOT AVBL                                               
MINERAL POINT  FAIR      64  57  77 E6        30.09R                  
MADISON        FAIR      61  55  81 E6        30.09S                  
MIDDLETON      FAIR      64  -3   7 CALM      30.10S                  
WATERTOWN      FAIR      60  58  95 NE6       30.10S                  
MONROE         FAIR      62  54  74 E7        30.09R                  
JANESVILLE     FAIR      61  55  82 E7        30.09S                  
$$
 
WIZ051-052-058>065-066-070>072-230400-
SOUTHEAST WISCONSIN
  
CITY           SKY/WX    TMP DP  RH WIND       PRES   REMARKS
MILWAUKEE      FAIR      67  52  58 NE8       30.10S                  
WAUKESHA       MOCLDY    61  52  72 NE5       30.12S                  
MILWAUKEE/TIMM FAIR      63  50  63 NE5       30.11S                  
RACINE         MOCLDY    66  53  63 NE8       30.11R                  
KENOSHA        FAIR      62  55  77 N6        30.10R                  
FOND DU LAC    CLOUDY    63  54  72 E5        30.12S                  
SHEBOYGAN      CLOUDY    60  55  83 CALM      30.12S                  
WEST BEND      MOCLDY    59  55  88 CALM      30.12S                  
JUNEAU         CLOUDY    61  55  79 CALM      30.12S                  
$$

LSZ147-162-230400-
LAKE SUPERIOR
  
STATION/POSITION TIME  TEMP    WIND        PRES    WAVE
                       AIR SEA DIR/SP/G            HT/PER
                 (UTC) (F)     (DEG/KT/KT) (MB)    (FT/S)
W MID LAKE BUOY  0150   61 63   10/  6/  6 1021.1R   0
DEVILS ISLAND    0200   62     100/  7/  8 1021.7R
SAXON HARBOR     0240   55     170/  5/  6 1021.3R
$$
 
LMZ867-665-643>646-230400-
LAKE MICHIGAN
  
STATION/POSITION TIME  TEMP    WIND        PRES    WAVE
                       AIR SEA DIR/SP/G            HT/PER
                 (UTC) (F)     (DEG/KT/KT) (MB)    (FT/S)
S GREEN BAY BUOY 0230   71 70  130/  4/  6 1020.3R
N MID LAKE BUOY  0240   64 70  360/ 14/ 17 1020.4R
NORTHPORT PIER   0240   64     350/  4/  6 1020.3R
KEWAUNEE LAKESHO 0230   64      CALM  /  1 1019.5S
SHEBOYGAN LAKESH 0200   66      50/  9/ 10 1020.0R
PORT WASHINGTON  0230   67      50/ 10/ 12 1020.7S
ATWATER BUOY     0230   68 69   50/ 12/ 16 1019.6R   4/ 5
S MID LAKE BUOY  0240   69 73   20/ 17/ 19 1018.6R
KENOSHA   LAKESH 0200   69      50/ 15/ 18 1018.3
$$

TC  - TEMPERATURE IN CELSIUS
VSB - VISIBILITY IN STATUTE MILES
WCI - WIND CHILL INDEX
HX  - HEAT INDEX